IRIDIUM 33 DEB, 35620

Orbit data source: Space-Track

IRIDIUM 33 DEB, 35620 is space debris in LEO originally from a launch on Sun, 14 Sep 1997 UTC launched from the Tyuratam Missile And Space Complex (TTMTR). The debris from Iridium 33, an American commercial communications satellite, has been tracked extensively since its accidental collision with the defunct Russian satellite Cosmos 2251 in 2009. This event, occurring at high speed in low Earth orbit (LEO), generated thousands of pieces of space debris, significantly increasing the risk of further collisions. The Iridium 33 debris cloud has impacted space traffic management and orbital debris mitigation strategies, making it a subject of ongoing study in space situational awareness.

Loading next visibility...
Identifier
35620, 1997-051QS
Orbit
LEO
Country
Flag of USUS
Related business
Manufacturer
Unknown
Mission
Spacecraft
Bus & Motor
Unknown
Mass
Unknown
Launch date (UTC)
1997-09-14 (28 years ago)
Launch vehicle
Unknown
Launch site
Tyuratam Missile And Space Complex (TTMTR)
Object type
Payload
Rocket body
Debris
Shape & HBR
Unknown shape, 0.1 m
Radar Cross Section
Small (<0.1 m²)

Expand to show TLE details & history
Last TLE update: 2 days ago

TLE from 2 days ago
0 IRIDIUM 33 DEB
1 35620U 97051QS  25352.33229858  .00014532  00000-0  42608-2 0  9992
2 35620  86.3909 215.0948 0139607 240.3700 118.3533 14.38231155600467
Epoch: 2025-12-18T07:58Z
TLE epoch observation values (Epoch: 2025-12-18T07:58:30.597Z)
Latitude
-0.00002°
Longitude
8.27799°
Altitude
815.838 km
Speed
7.42 km/s
True Right ascension
14h 20m 22s
True Declination
0° 00' 00"
Sunlit
Object was in daylight at epoch
Visualization orbit readout
Latitude
Unknown
Longitude
Unknown
Altitude
Unknown
Speed
Unknown
Apparent Right ascension
Unknown
Apparent Declination
Unknown
Sunlit
N/A
Visualization observer readout
Local Sidereal Time
01:26:42
Azimuth
Unknown
Elevation
Unknown
Doppler factor
Unknown
Orbital elements
Apogee altitude
860.978 km
Perigee altitude
661.635 km
Semi-major axis
7,139.444 km
Eccentricity
0.01396
Inclination
86.3909°
RAAN
215.0948°
Arg. of periapsis
240.37°
True anomaly
119.74945°
Mean anomaly
118.3533°
Eccentric anomaly
119.05254°
Mean motion
3.59788 °/min
Orbital period
100.06 mins
BSTAR
0.0042608
Loading maneuver chart data...
Computing Atmospheric mass density...
Loading historical data...
Loading historical data...
Loading historical data...
Loading historical data...
Loading historical data...
Loading historical data...
Loading historical data...

Documentation

Showing up to 5 results
|